Main page
METAR-TAF:

METAR-TAF

Airports :

Maragheh, Iran

latitude: 37-20-55N, longitude: 046-07-35E, elevation: 1340 m

Current weather observation

The report was made 20 minutes ago, at 16:00 UTC
Wind 4 kt from the East
Temperature 3°C
Humidity 60%
Pressure 1024 hPa
Visibility: 8000 m

METAR: OITM 181600Z 09004KT 8000 NSC 03/M04 Q1024

Time: 19:50 (16:20 UTC)


TAF: missing

Weather observations and forecasts of more than 4000 airports (METAR and TAF reports).

The available stations are represented by yellow and red dots on the map.

Hover mouse over dot to see the name of the station.

Then click to see weather observations and forecasts.

To change the map : click on the green buttons with a black cross to zoom in, on the green button with a dash to zoom out, or on the green arrows for adjacent maps.


METAR-TAF: